Weather History for Little Rock AFB, AR

Change the Weather History Date:

Tuesday, May 8, 2012

  Actual Average Record
Temperature  
Mean Temperature 70 °F -  
Max Temperature 73 °F 78 °F 91 °F (1999)
Min Temperature 65 °F 56 °F 39 °F (1992)
Cooling Degree Days 4    
Growing Degree Days 20 (Base 50)    
Moisture  
Dew Point 60 °F    
Average Humidity 73    
Maximum Humidity 82    
Minimum Humidity 61    
Precipitation  
Precipitation 0.01 in - - ()
Sea Level Pressure  
Sea Level Pressure 29.97 in    
Wind  
Wind Speed 6 mph (North)    
Max Wind Speed 10 mph    
Max Gust Speed -    
Visibility 10 miles    
Events Rain    
Averages and records for this station are not official NWS values.
T = Trace of Precipitation, MM = Missing Value Source: NWS Daily Summary

Daily Weather History Graph

Daily Weather History Graph

Search for Another Location

Airport:

Trip Planner

Search our weather history database for the weather conditions in past years. The results will help you decide how hot, cold, wet, or windy it might be!

Date:

Astronomy

May. 08, 2012 Rise Set
Actual Time 6:10 AM CDT 8:00 PM CDT
Civil Twilight 5:43 AM CDT 8:27 PM CDT
Nautical Twilight 5:09 AM CDT 9:01 PM CDT
Astronomical Twilight 4:34 AM CDT 9:36 PM CDT
Moon 11:07 PM CDT (5/8) 8:22 AM CDT (5/8)
Length of Visible Light 14h 44m
Length of Day
13h 49m
Waning Gibbous, 90% of the Moon is Illuminated
May 8
Waning Gibbous
May 12
Last Quarter
May 20
New
May 28
First Quarter
Jun 4
Full

Hourly Weather History & Observations

Time (CDT) Temp. Dew Point Humidity Pressure Visibility Wind Dir Wind Speed Gust Speed Precip Events Conditions
12:55 AM 73.2 °F 64.0 °F 73% 29.92 in 10.0 mi NNE 6.9 mph - N/A   Scattered Clouds
1:06 AM 73.4 °F 64.4 °F 73% 29.91 in 10.0 mi NNE 8.1 mph - N/A   Mostly Cloudy
1:44 AM 73.4 °F 62.6 °F 69% 29.92 in 10.0 mi NNE 6.9 mph - N/A   Overcast
1:55 AM 72.7 °F 62.6 °F 71% 29.92 in 10.0 mi NNE 6.9 mph - N/A   Overcast
2:55 AM 71.2 °F 61.2 °F 70% 29.93 in 10.0 mi NNE 8.1 mph - N/A   Mostly Cloudy
3:55 AM 69.3 °F 60.4 °F 73% 29.92 in 10.0 mi NNE 8.1 mph - N/A   Clear
4:55 AM 67.8 °F 60.1 °F 76% 29.93 in 10.0 mi NNE 3.5 mph - N/A   Partly Cloudy
5:55 AM 67.6 °F 59.9 °F 76% 29.94 in 10.0 mi North 5.8 mph - N/A   Overcast
6:55 AM 67.8 °F 59.7 °F 75% 29.95 in 10.0 mi NNE 5.8 mph - N/A   Overcast
7:55 AM 67.8 °F 60.1 °F 76% 29.96 in 10.0 mi North 8.1 mph - N/A   Overcast
8:55 AM 68.7 °F 60.4 °F 75% 29.97 in 10.0 mi NNE 10.4 mph - N/A   Scattered Clouds
9:32 AM 68.0 °F 60.8 °F 78% 29.99 in 10.0 mi North 4.6 mph - N/A Rain Light Rain
9:49 AM 68.0 °F 60.8 °F 78% 29.99 in 10.0 mi North 6.9 mph - N/A   Overcast
9:55 AM 68.0 °F 60.8 °F 78% 29.99 in 10.0 mi North 5.8 mph - 0.00 in   Overcast
10:55 AM 68.5 °F 61.7 °F 79% 30.00 in 10.0 mi NW 5.8 mph - N/A   Overcast
11:33 AM 69.8 °F 60.8 °F 73% 30.00 in 10.0 mi NNW 8.1 mph - N/A Rain Light Rain
11:55 AM 68.5 °F 61.7 °F 79% 30.02 in 9.0 mi NW 5.8 mph - 0.01 in Rain Light Rain
12:06 PM 68.0 °F 60.8 °F 78% 30.02 in 10.0 mi NW 6.9 mph - N/A   Overcast
12:26 PM 68.0 °F 60.8 °F 78% 30.01 in 10.0 mi North 6.9 mph - N/A   Light Drizzle
12:50 PM 68.0 °F 60.8 °F 78% 30.01 in 10.0 mi Variable 6.9 mph - N/A   Mostly Cloudy
12:55 PM 68.4 °F 61.3 °F 78% 30.01 in 10.0 mi NNW 9.2 mph - 0.00 in   Mostly Cloudy
1:55 PM 71.1 °F 61.2 °F 71% 29.99 in 10.0 mi North 6.9 mph - N/A   Mostly Cloudy
2:55 PM 71.6 °F 59.0 °F 64% 29.99 in 10.0 mi NNE 8.1 mph - N/A   Mostly Cloudy
3:55 PM 72.1 °F 57.9 °F 61% 29.96 in 10.0 mi NNE 5.8 mph - N/A   Mostly Cloudy
4:55 PM 72.9 °F 59.2 °F 62% 29.95 in 5.0 mi Calm Calm - N/A   Haze
5:55 PM 72.3 °F 59.7 °F 64% 29.94 in 10.0 mi Calm Calm - N/A   Scattered Clouds
6:55 PM 71.6 °F 61.2 °F 70% 29.94 in 10.0 mi Calm Calm - N/A   Mostly Cloudy
7:55 PM 69.3 °F 63.7 °F 82% 29.95 in 10.0 mi NNW 3.5 mph - N/A   Scattered Clouds
8:55 PM 68.0 °F 57.9 °F 70% 29.98 in 10.0 mi NW 4.6 mph - N/A   Mostly Cloudy
9:55 PM 66.6 °F 57.0 °F 71% 29.98 in 10.0 mi Variable 4.6 mph - N/A   Overcast
10:55 PM 66.0 °F 55.6 °F 69% 29.99 in 10.0 mi Variable 3.5 mph - N/A   Mostly Cloudy
11:55 PM 65.3 °F 55.0 °F 69% 30.00 in 10.0 mi NNW 3.5 mph - N/A   Mostly Cloudy